Weather History for Bishop, CA

Change the Weather History Date:

Sunday, January 12, 2014

  Actual Average Record
Temperature  
Mean Temperature 48 °F 38 °F  
Max Temperature 61 °F 54 °F 76 °F (1998)
Min Temperature 34 °F 23 °F 2 °F (1993)
Degree Days  
Heating Degree Days 17 27  
Month to date heating degree days 253 326  
Since 1 July heating degree days 2061 2073  
Cooling Degree Days 0 0  
Month to date cooling degree days 0 0  
Year to date cooling degree days 0 0  
Moisture  
Dew Point 8 °F    
Average Humidity 22    
Maximum Humidity 35    
Minimum Humidity 9    
Precipitation  
Precipitation 0.00 in 0.04 in 0.92 in (1957)
Month to date precipitation 0.00 0.49  
Year to date precipitation 0.00 0.49  
Snow  
Snow 0.00 in 0.20 in 2.40 in (1949)
Month to date snowfall 0.0 1.6  
Since 1 July snowfall 0.5 3.3  
Snow Depth 0.00 in    
Sea Level Pressure  
Sea Level Pressure 30.18 in    
Wind  
Wind Speed 15 mph (North)    
Max Wind Speed 29 mph    
Max Gust Speed 36 mph    
Visibility 10 miles    
Events      
T = Trace of Precipitation, MM = Missing Value Source: NWS Daily Summary

Daily Weather History Graph

Daily Weather History Graph

Search for Another Location

Airport:

Trip Planner

Search our weather history database for the weather conditions in past years. The results will help you decide how hot, cold, wet, or windy it might be!

Date:

Astronomy

Jan. 12, 2014 Rise Set
Actual Time 7:07 AM PST 4:56 PM PST
Civil Twilight 6:38 AM PST 5:25 PM PST
Nautical Twilight 6:06 AM PST 5:57 PM PST
Astronomical Twilight 5:35 AM PST 6:28 PM PST
Moon 2:27 PM PST (1/12) 4:10 AM PST (1/12)
Length of Visible Light 10h 46m
Length of Day
9h 49m
Waxing Gibbous, 90% of the Moon is Illuminated
Jan 12
Waxing Gibbous
Jan 15
Full
Jan 23
Last Quarter
Jan 30
New
Feb 6
First Quarter

Hourly Weather History & Observations

Time (PST) Temp. Windchill Dew Point Humidity Pressure Visibility Wind Dir Wind Speed Gust Speed Precip Events Conditions
12:56 AM 54.0 °F - 12.0 °F 19% 29.95 in 10.0 mi NNE 16.1 mph 24.2 mph N/A   Clear
1:56 AM 52.0 °F - 10.9 °F 19% 29.94 in 10.0 mi North 15.0 mph 25.3 mph N/A   Clear
2:56 AM 46.9 °F - 10.0 °F 22% 29.97 in 10.0 mi NNW 17.3 mph - N/A   Clear
3:56 AM 43.0 °F 37.7 °F 10.0 °F 26% 30.02 in 10.0 mi NW 9.2 mph - N/A   Clear
4:56 AM 44.1 °F 37.4 °F 9.0 °F 24% 30.05 in 10.0 mi NNW 13.8 mph 24.2 mph N/A   Clear
5:56 AM 37.9 °F 30.9 °F 12.0 °F 35% 30.06 in 10.0 mi NNW 10.4 mph - N/A   Clear
6:56 AM 39.0 °F 31.0 °F 12.9 °F 34% 30.12 in 10.0 mi North 13.8 mph - N/A   Clear
7:56 AM 43.0 °F 35.4 °F 15.1 °F 32% 30.16 in 10.0 mi NNW 16.1 mph 24.2 mph N/A   Clear
8:56 AM 48.9 °F - 12.0 °F 23% 30.18 in 10.0 mi North 21.9 mph 29.9 mph N/A   Clear
9:56 AM 54.0 °F - 3.9 °F 13% 30.18 in 10.0 mi North 27.6 mph 34.5 mph N/A   Clear
10:56 AM 55.0 °F - -0.9 °F 10% 30.17 in 10.0 mi North 24.2 mph 31.1 mph N/A   Clear
11:56 AM 57.0 °F - -0.0 °F 10% 30.14 in 10.0 mi North 21.9 mph 26.5 mph N/A   Clear
12:56 PM 60.1 °F - 1.9 °F 10% 30.12 in 10.0 mi North 13.8 mph - N/A   Clear
1:56 PM 61.0 °F - 3.0 °F 10% 30.12 in 10.0 mi North 15.0 mph 23.0 mph N/A   Clear
2:56 PM 60.1 °F - 3.0 °F 10% 30.14 in 10.0 mi North 18.4 mph 25.3 mph N/A   Clear
3:56 PM 59.0 °F - 3.9 °F 11% 30.17 in 10.0 mi North 15.0 mph - N/A   Clear
4:56 PM 53.1 °F - 7.0 °F 16% 30.23 in 10.0 mi North 11.5 mph - N/A   Clear
5:56 PM 48.0 °F - 9.0 °F 21% 30.27 in 10.0 mi North 17.3 mph 24.2 mph N/A   Clear
6:56 PM 48.0 °F - 10.0 °F 22% 30.30 in 10.0 mi North 19.6 mph 27.6 mph N/A   Clear
7:56 PM 46.9 °F - 10.0 °F 22% 30.34 in 10.0 mi North 17.3 mph - N/A   Clear
8:56 PM 43.0 °F 35.7 °F 10.0 °F 26% 30.35 in 10.0 mi North 15.0 mph - N/A   Clear
9:56 PM 43.0 °F 37.7 °F 10.0 °F 26% 30.42 in 10.0 mi NW 9.2 mph - N/A   Clear
10:56 PM 36.0 °F - 9.0 °F 33% 30.41 in 10.0 mi Calm Calm - N/A   Clear
11:56 PM 36.0 °F 31.1 °F 10.9 °F 36% 30.41 in 10.0 mi NW 5.8 mph - N/A   Clear